This is the latest recevied weather packets stored in our database for station/object 7M1JBF-11. If no packets are shown the sender has not sent any weather packets the latest 10 day(s).
| Time | Temp. | Humidity | Pressure | Rain* | Wind** | Luminosity | Snow |
|---|---|---|---|---|---|---|---|
| 1777932408 | 23.33° C | 100% | 1018.3 hPa | 0 mm | - | - | - |
| 1777930001 | 20° C | 100% | 1018 hPa | 0 mm | - | - | - |
| 1777929401 | 18.89° C | 100% | 1017.8 hPa | 0 mm | - | - | - |
| 1777928800 | 17.78° C | 100% | 1017.6 hPa | 0 mm | - | - | - |
| 1777928197 | 16.67° C | 100% | 1017.2 hPa | 0 mm | - | - | - |
| 1777927596 | 15.56° C | 100% | 1017 hPa | 0 mm | - | - | - |
| 1777926995 | 15° C | 100% | 1017 hPa | 0 mm | - | - | - |
| 1777926394 | 14.44° C | 100% | 1016.7 hPa | 0 mm | - | - | - |
| 1777925792 | 13.89° C | 100% | 1016.3 hPa | 0 mm | - | - | - |
| 1777925190 | 13.89° C | 100% | 1016 hPa | 0 mm | - | - | - |
| 1777924591 | 13.89° C | 100% | 1015.7 hPa | 0 mm | - | - | - |
| 1777923988 | 13.89° C | 100% | 1015.4 hPa | 0 mm | - | - | - |
| 1777923386 | 13.89° C | 100% | 1015.1 hPa | 0 mm | - | - | - |
| 1777922786 | 13.89° C | 100% | 1014.8 hPa | 0 mm | - | - | - |
| 1777922185 | 13.89° C | 100% | 1014.6 hPa | 0 mm | - | - | - |
| 1777921582 | 13.89° C | 100% | 1014.7 hPa | 0 mm | - | - | - |
| 1777920981 | 14.44° C | 100% | 1014.4 hPa | 0 mm | - | - | - |
| 1777920380 | 14.44° C | 100% | 1014.2 hPa | 0 mm | - | - | - |
| 1777919778 | 14.44° C | 100% | 1014.3 hPa | 0 mm | - | - | - |
| 1777919177 | 14.44° C | 100% | 1014 hPa | 0 mm | - | - | - |
| 1777918576 | 14.44° C | 100% | 1013.8 hPa | 0 mm | - | - | - |
| 1777917974 | 14.44° C | 100% | 1013.6 hPa | 0 mm | - | - | - |
| 1777917373 | 14.44° C | 100% | 1013.3 hPa | 0 mm | - | - | - |
| 1777916772 | 14.44° C | 100% | 1013 hPa | 0 mm | - | - | - |
| 1777916170 | 14.44° C | 100% | 1012.7 hPa | 0 mm | - | - | - |
* Rain since midnight (hover to see other rain measurements)
** Current wind speed in m/s (hover to see current wind gust speed)